Tracking 28920 objects as of 26-May-2024
HD Live streaming from Space Station
objects crossing your sky now

STARLINK-11089

Track STARLINK-11089 now!
10-day predictions
STARLINK-11089 is classified as:


NORAD ID: 59426
Int'l Code: 2024-065F
Perigee: 361.3 km
Apogee: 362.7 km
Inclination: 53.2 °
Period: 91.6 minutes
Semi major axis: 6733 km
RCS: Unknown
Launch date: April 7, 2024
Source: United States (US)
Launch site: AIR FORCE WESTERN TEST RANGE (AFWTR)
Your satellite tracking list
Your tracking list is empty




NASA's NSSDC Master Catalog

Two Line Element Set (TLE):
1 59426U 24065F   24147.11817019 -.00010852  00000-0 -78906-4 0  9991
2 59426  53.1570  79.3367 0001008  82.8404 277.2729 15.71407071  8916
Source of the keplerian elements: AFSPC